Simultaneous Nadir Overpasses (SNOs) Predictions

Prediction of SNOs between AQUA and METOP-B Satellite Orbit:

Table of predicted SNOs for the next 14.0 days since TLE Epoch: 10/15/2022
Index Date (AQUA) Time (AQUA) Lat,Lon (AQUA) SZA (AQUA ) Date (METOP-B) Time (METOP-B) Lat,Lon (METOP-B) SZA (METOP-B ) Distance(km) Time Diff (sec)
1 10/15/2022 15:32:17 74.06, -58.13 82.65 10/15/2022 15:31:31 74.07, -58.08 82.66 1.74 46
2 10/15/2022 16:21:43 -74.12, 109.38 97.28 10/15/2022 16:22:12 -74.12, 109.37 97.29 0.28 29
3 10/18/2022 10:16:08 -74.03,-159.00 96.38 10/18/2022 10:15:15 -74.04,-159.09 96.36 3.07 53
4 10/18/2022 11:05:37 74.14, 8.39 83.75 10/18/2022 11:05:53 74.11, 8.43 83.73 3.02 16
5 10/18/2022 11:55:16 -74.86, 174.27 95.50 10/18/2022 11:56:20 -74.84, 177.69 95.53 99.32 64
6 10/21/2022 05:00:02 74.04, 100.01 84.64 10/21/2022 04:58:56 74.06, 100.06 84.67 3.01 66
7 10/21/2022 05:49:28 -74.10, -92.47 95.29 10/21/2022 05:49:37 -74.12, -92.47 95.27 2.54 9
8 10/21/2022 06:39:00 74.37, 74.53 85.00 10/21/2022 06:40:11 74.39, 75.55 85.01 30.40 71
9 10/23/2022 23:43:53 -74.05, -0.96 94.37 10/23/2022 23:42:41 -74.02, -0.97 94.40 3.61 72
10 10/24/2022 00:33:21 74.12, 166.53 85.71 10/24/2022 00:33:19 74.09, 166.53 85.68 3.20 2
11 10/24/2022 01:22:47 -74.17, -25.95 94.23 10/24/2022 01:24:00 -74.15, -25.99 94.25 2.96 73
12 10/26/2022 18:27:39 73.76,-101.26 86.30 10/26/2022 18:26:29 73.68,-102.71 86.22 46.19 70
13 10/26/2022 19:17:10 -74.08, 65.68 93.38 10/26/2022 19:17:03 -74.09, 65.61 93.37 2.69 7



Historial Predications of SNOs between AQUA and METOP-B
